Location: Overspoor
(51.4747°N, 5.6641°E)
Time: 21:13:18
(UTC+02:00)

RS-15 - Pass Details

Date: 28 June 2022
Orbit: 1881 x 2163 km, 64.8° (Epoch: 15 August)

Event Time Altitude Azimuth Distance (km) Brightness Sun altitude
Rises 22:27:22 0° 296° (WNW) 5,661 12.1 -4.1°
Reaches altitude 10° 22:31:06 10° 303° (WNW) 4,674 11.6 -4.5°
Maximum altitude 22:42:58 48° 16° (NNE) 2,674 9.1 -5.7°
Drops below altitude 10° 22:54:42 10° 89° (E) 4,632 9.7 -6.9°
Sets 22:58:21 0° 95° (E) 5,607 10.0 -7.2°
